TimeMDT,TemperatureF,Dew PointF,Humidity,Sea Level PressureIn,VisibilityMPH,Wind Direction,Wind SpeedMPH,Gust SpeedMPH,PrecipitationIn,Events,Conditions,WindDirDegrees,DateUTC
12:53 AM,71.1,32.0,24,29.56,10.0,SW,11.5,-,N/A,,Clear,230,2013-09-21 06:53:00
1:53 AM,68.0,33.1,27,29.58,10.0,Calm,Calm,-,N/A,,Clear,0,2013-09-21 07:53:00
2:53 AM,68.0,30.9,25,29.60,10.0,SSW,4.6,-,N/A,,Clear,200,2013-09-21 08:53:00
3:53 AM,66.9,32.0,27,29.61,10.0,South,6.9,-,N/A,,Clear,170,2013-09-21 09:53:00
4:53 AM,66.0,35.1,32,29.63,10.0,SSE,4.6,-,N/A,,Clear,150,2013-09-21 10:53:00
5:53 AM,64.0,35.1,34,29.64,10.0,SSE,8.1,-,N/A,,Clear,150,2013-09-21 11:53:00
6:53 AM,61.0,36.0,39,29.66,10.0,SSE,6.9,-,N/A,,Clear,160,2013-09-21 12:53:00
7:53 AM,57.9,37.9,47,29.68,10.0,South,3.5,-,N/A,,Clear,190,2013-09-21 13:53:00
8:53 AM,63.0,39.0,41,29.70,10.0,Calm,Calm,-,N/A,,Clear,0,2013-09-21 14:53:00
9:53 AM,66.0,39.0,37,29.72,10.0,West,5.8,-,N/A,,Clear,280,2013-09-21 15:53:00
10:53 AM,66.9,42.1,40,29.72,10.0,West,16.1,-,N/A,,Clear,270,2013-09-21 16:53:00
11:53 AM,68.0,42.1,39,29.72,10.0,WSW,9.2,-,N/A,,Clear,250,2013-09-21 17:53:00
12:53 PM,70.0,39.9,33,29.70,10.0,NNW,12.7,19.6,N/A,,Clear,330,2013-09-21 18:53:00
1:53 PM,73.0,39.9,30,29.68,10.0,Variable,5.8,-,N/A,,Clear,0,2013-09-21 19:53:00
2:53 PM,73.9,39.9,29,29.66,10.0,Variable,4.6,-,N/A,,Clear,0,2013-09-21 20:53:00
3:53 PM,73.0,41.0,31,29.65,10.0,Variable,3.5,-,N/A,,Clear,0,2013-09-21 21:53:00
4:53 PM,73.0,41.0,31,29.66,10.0,West,11.5,17.3,N/A,,Mostly Cloudy,260,2013-09-21 22:53:00
5:07 PM,68.0,42.8,40,29.71,2.0,WSW,28.8,41.4,N/A,,Haze,240,2013-09-21 23:07:00
5:14 PM,64.4,44.6,49,29.71,1.8,West,23.0,38.0,0.00,Rain,Light Rain,260,2013-09-21 23:14:00
5:16 PM,64.4,44.6,49,29.71,3.0,West,24.2,38.0,0.00,Rain,Light Rain,260,2013-09-21 23:16:00
5:53 PM,64.0,43.0,46,29.70,10.0,West,20.7,36.8,0.00,,Clear,260,2013-09-21 23:53:00
6:53 PM,62.1,39.9,44,29.71,10.0,West,18.4,28.8,N/A,,Mostly Cloudy,260,2013-09-22 00:53:00
7:53 PM,61.0,41.0,48,29.70,10.0,West,9.2,-,N/A,,Scattered Clouds,270,2013-09-22 01:53:00
8:53 PM,60.1,41.0,49,29.69,10.0,West,11.5,-,N/A,,Clear,260,2013-09-22 02:53:00
9:53 PM,59.0,43.0,55,29.69,10.0,WSW,9.2,-,N/A,,Clear,240,2013-09-22 03:53:00
10:53 PM,59.0,45.0,60,29.69,10.0,WSW,11.5,-,0.00,Rain,Light Rain,250,2013-09-22 04:53:00
11:53 PM,57.0,45.0,64,29.67,10.0,WSW,9.2,-,0.00,,Clear,240,2013-09-22 05:53:00